Weather reports worldwide

Advertisment
Leck, Germany (10022): temperature & dewpoint: 19.08.2019 08:00:00 - 25.08.2019 08:00:00 (CEST)Leck, Germany (10022): temperature 5cm & temperature -5cm: 19.08.2019 08:00:00 - 25.08.2019 08:00:00 (CEST)Leck, Germany (10022): temperature -20cm & temperature -100cm: 19.08.2019 08:00:00 - 25.08.2019 08:00:00 (CEST)Leck, Germany (10022): wind speed & gusts: 19.08.2019 08:00:00 - 25.08.2019 08:00:00 (CEST)Leck, Germany (10022): wind direction: 19.08.2019 08:00:00 - 25.08.2019 08:00:00 (CEST)Leck, Germany (10022): reduced air pressure: 19.08.2019 08:00:00 - 25.08.2019 08:00:00 (CEST)Leck, Germany (10022): visibility: 19.08.2019 08:00:00 - 25.08.2019 08:00:00 (CEST)Leck, Germany (10022): sunshine duration: 19.08.2019 08:00:00 - 25.08.2019 08:00:00 (CEST)Leck, Germany (10022): precipitation: 19.08.2019 08:00:00 - 25.08.2019 08:00:00 (CEST)
Date & Time tt [°C] td [°C] tt 5cm [°C] tt -5cm [°C] tt -20cm [°C] tt -100cm [°C] ff [km/h] ff [kn] fx [km/h] fx [kn] dd ppp [hPa] vv [km] sd [min] rr [mm]
25.08.2019 08:00:00 17,2 15,8 16,7 15,8 17,7 15,8 10 5 13 7 E 1021,9 7 44 0,0
25.08.2019 07:00:00 15,8 15,0 14,2 15,0 18,0 15,8 10 5 16 8 E 1021,9 6 0 0,0
25.08.2019 06:00:00 15,5 14,6 13,7 15,1 18,3 15,8 12 7 15 8 E 1021,9 - 0 0,0
25.08.2019 05:00:00 16,2 14,9 14,2 15,5 18,6 15,8 11 6 17 9 E 1022,0 - 0 0,0
25.08.2019 04:00:00 16,3 14,6 14,3 15,8 18,9 15,8 13 7 16 9 E 1022,3 - 0 0,0
25.08.2019 03:00:00 15,9 14,2 13,9 16,1 19,3 15,8 12 6 14 8 E 1022,4 - 0 0,0
25.08.2019 02:00:00 16,1 14,4 14,1 16,7 19,7 15,8 13 7 14 8 E 1022,7 - 0 0,0
25.08.2019 01:00:00 16,3 15,0 14,5 17,4 20,1 15,8 10 6 14 8 ENE 1023,0 - 0 0,0
25.08.2019 00:00:00 16,7 15,5 15,0 18,2 20,5 15,8 11 6 14 8 ENE 1023,1 - 0 0,0
24.08.2019 23:00:00 17,2 15,5 15,3 19,1 21,0 15,8 9 5 14 8 ENE 1023,3 - 0 0,0
24.08.2019 22:00:00 18,4 16,0 16,5 20,4 21,4 15,8 12 6 15 8 ENE 1023,3 - 0 0,0
24.08.2019 21:00:00 19,4 16,1 17,6 22,2 21,7 15,8 11 6 17 9 ENE 1023,1 - 8 0,0
24.08.2019 20:00:00 21,6 16,5 21,2 24,5 21,8 15,8 13 7 22 12 ENE 1023,0 - 60 0,0
24.08.2019 19:00:00 23,5 16,0 24,7 26,8 21,7 15,7 18 10 26 14 ENE 1023,2 - 60 0,0
24.08.2019 18:00:00 25,0 14,4 26,9 28,8 21,4 15,7 19 10 27 15 E 1023,5 - 60 0,0
24.08.2019 17:00:00 25,2 14,4 28,2 30,3 20,9 15,7 19 11 27 15 E 1023,9 - 60 0,0
24.08.2019 16:00:00 25,7 15,3 29,1 31,1 20,2 15,7 19 10 29 15 E 1024,2 - 60 0,0
24.08.2019 15:00:00 25,8 16,0 30,1 31,0 19,4 15,7 17 9 26 14 E 1024,4 - 60 0,0
24.08.2019 14:00:00 24,9 14,9 29,1 30,1 18,6 15,7 18 10 27 14 E 1024,7 - 60 0,0
24.08.2019 13:00:00 24,1 15,2 28,8 28,3 17,8 15,7 16 9 25 13 E 1025,2 - 60 0,0
24.08.2019 12:00:00 23,2 14,7 26,9 25,9 17,1 15,7 16 9 23 13 E 1025,7 - 60 0,0
24.08.2019 11:00:00 21,4 15,4 25,7 22,8 16,6 15,7 12 7 21 11 E 1025,9 - 60 0,0
24.08.2019 10:00:00 19,5 15,7 22,2 19,8 16,4 15,7 16 8 20 11 E 1025,7 - 60 0,0
24.08.2019 09:00:00 17,0 15,5 18,5 16,9 16,3 15,7 9 5 12 6 E 1025,8 - 60 0,0
24.08.2019 08:00:00 14,2 14,1 14,7 14,0 16,5 15,7 7 4 10 5 E 1025,8 - 44 0,0
24.08.2019 07:00:00 11,5 11,5 11,0 13,1 16,8 15,7 7 4 8 5 E 1026,0 - 0 0,0
24.08.2019 06:00:00 11,5 11,5 10,4 13,5 17,0 15,7 7 4 9 5 E 1026,0 - 0 0,0
24.08.2019 05:00:00 12,0 12,0 11,7 14,0 17,3 15,7 6 3 8 4 E 1026,0 - 0 0,0
24.08.2019 04:00:00 12,0 12,0 11,5 14,1 17,6 15,7 6 3 8 5 E 1026,1 - 0 0,0
24.08.2019 03:00:00 12,2 12,2 11,1 14,4 18,0 15,7 6 3 7 4 ESE 1026,0 - 0 0,0
24.08.2019 02:00:00 12,0 11,8 11,0 14,8 18,4 15,7 3 2 5 3 E 1026,0 - 0 0,0
24.08.2019 01:00:00 12,7 12,7 10,7 15,4 18,8 15,7 3 2 4 2 ENE 1026,1 - 0 0,0
24.08.2019 00:00:00 13,5 13,2 10,8 16,2 19,2 15,7 2 1 6 3 ENE 1026,0 - 0 0,0
23.08.2019 23:00:00 14,6 13,9 11,4 17,3 19,6 15,7 3 2 4 2 E 1025,9 - 0 0,0
23.08.2019 22:00:00 15,7 15,0 12,8 18,7 20,0 15,7 2 1 8 4 NNE 1026,1 - 0 0,0
23.08.2019 21:00:00 17,6 16,2 15,0 20,6 20,3 15,7 6 3 12 7 W 1026,0 - 11 0,0
23.08.2019 20:00:00 19,2 16,1 19,2 22,8 20,3 15,7 9 5 16 9 W 1025,6 - 60 0,0
23.08.2019 19:00:00 20,3 15,8 22,1 24,7 20,2 15,7 11 6 24 13 W 1025,7 - 60 0,0
23.08.2019 18:00:00 21,3 15,2 23,8 26,1 20,0 15,7 14 8 25 14 W 1025,8 - 58 0,0
23.08.2019 17:00:00 21,6 15,9 24,8 26,3 19,6 15,7 17 9 26 14 W 1025,7 - 20 0,0
23.08.2019 16:00:00 21,3 16,1 23,1 28,1 19,0 15,7 14 7 30 16 WSW 1025,7 - 39 0,0
23.08.2019 15:00:00 21,8 16,6 26,2 28,0 18,3 15,7 20 11 31 17 SW 1025,8 - 45 0,0
23.08.2019 14:00:00 22,0 16,7 26,1 28,0 17,5 15,7 18 10 33 18 SW 1025,7 - 58 0,0
23.08.2019 13:00:00 21,1 16,5 25,8 24,7 16,9 15,7 18 10 31 17 SW 1025,7 - 48 0,0
23.08.2019 12:00:00 20,5 16,4 24,4 22,8 16,3 15,7 16 8 29 15 SW 1025,5 - 58 0,0
23.08.2019 11:00:00 19,7 15,9 22,2 20,5 15,9 15,7 17 9 30 16 SSW 1025,4 - 60 0,0
23.08.2019 10:00:00 18,6 14,8 20,1 18,2 15,7 15,7 19 10 31 17 SSW 1025,1 - 58 0,0
23.08.2019 09:00:00 17,4 14,4 16,5 15,8 15,7 15,7 13 7 23 12 SSW 1025,0 - 31 0,0
23.08.2019 08:00:00 15,5 14,6 14,9 14,3 15,7 15,7 10 5 15 8 S 1024,6 - 0 0,0
23.08.2019 07:00:00 14,6 14,2 13,6 13,2 15,9 15,7 11 6 16 9 S 1024,2 - 0 0,0
23.08.2019 06:00:00 14,1 13,8 12,7 12,8 16,1 15,7 11 6 17 9 S 1024,1 - 0 0,0
23.08.2019 05:00:00 13,1 12,4 11,3 12,8 16,3 15,7 10 6 13 7 S 1024,3 - 0 0,0
23.08.2019 04:00:00 13,5 12,4 11,7 12,9 16,6 15,7 11 6 16 8 S 1024,2 - 0 0,0
23.08.2019 03:00:00 12,9 12,2 11,0 13,0 17,0 15,7 10 5 12 6 S 1024,4 - 0 0,0
23.08.2019 02:00:00 13,1 12,4 10,6 13,3 17,4 15,7 8 4 14 8 SSW 1024,5 - 0 0,0
23.08.2019 01:00:00 12,5 11,7 9,8 13,7 17,8 15,7 7 4 9 5 S 1024,5 - 0 0,0
23.08.2019 00:00:00 12,3 11,0 9,7 14,5 18,2 15,7 5 3 9 5 S 1024,5 - 0 0,0
22.08.2019 23:00:00 13,6 11,9 10,5 15,6 18,6 15,7 6 4 8 4 S 1024,4 - 0 0,0
22.08.2019 22:00:00 14,5 13,1 11,1 17,0 19,0 15,7 6 3 12 7 SW 1024,3 - 0 0,0
22.08.2019 21:00:00 15,9 13,2 13,2 18,8 19,3 15,7 6 4 19 11 SSW 1024,1 - 0 0,0
22.08.2019 20:00:00 18,8 13,0 17,7 21,0 19,4 15,7 10 6 24 13 SW 1023,9 - 53 0,0
22.08.2019 19:00:00 19,7 12,2 19,9 22,9 19,3 15,7 12 6 25 13 SW 1023,7 - 58 0,0
22.08.2019 18:00:00 20,7 11,7 21,9 24,4 19,1 15,7 16 9 31 17 SW 1024,0 - 60 0,0
22.08.2019 17:00:00 21,6 12,0 24,2 25,7 18,6 15,7 16 9 35 19 SW 1024,1 - 60 0,0
22.08.2019 16:00:00 21,9 10,9 24,2 26,3 18,1 15,7 22 12 38 20 SW 1023,9 1,7 60 0,0
22.08.2019 15:00:00 21,9 11,0 25,0 26,1 17,4 15,7 20 11 35 19 SW 1024,2 1,1 60 0,0
22.08.2019 14:00:00 21,9 11,2 24,7 25,0 16,7 15,7 21 11 33 18 SSW 1024,4 3,5 60 0,0
22.08.2019 13:00:00 21,6 10,2 24,5 23,4 16,1 15,7 20 11 35 19 SSW 1024,6 4,4 60 0,0
22.08.2019 12:00:00 21,1 11,0 23,7 21,6 15,6 15,7 19 11 31 17 S 1024,9 9 59 0,0
22.08.2019 11:00:00 19,9 10,2 21,9 19,7 15,1 15,7 22 12 31 17 S 1025,2 8 60 0,0
22.08.2019 10:00:00 18,1 10,5 19,2 17,3 14,9 15,7 17 9 25 13 SSE 1025,1 14 60 0,0
22.08.2019 09:00:00 15,9 9,9 16,6 14,5 14,9 15,7 16 9 21 12 S 1025,5 12 60 0,0
22.08.2019 08:00:00 12,9 10,5 12,2 12,0 15,0 15,7 6 3 10 5 ESE 1026,0 17 38 0,0
22.08.2019 07:00:00 11,2 9,3 9,4 11,0 15,3 15,7 8 4 11 6 ESE 1026,1 17 0 0,0
22.08.2019 06:00:00 13,3 10,2 10,4 11,2 15,5 15,7 9 5 20 11 SSE 1025,9 25 0 0,0
22.08.2019 05:00:00 10,9 9,3 8,5 11,3 15,8 15,7 6 4 8 5 E 1026,4 16 0 0,0
22.08.2019 04:00:00 10,7 9,9 8,8 11,7 16,1 15,7 7 4 8 5 E 1026,7 10 0 0,0
22.08.2019 03:00:00 10,9 10,2 9,1 12,0 16,5 15,7 7 4 8 5 E 1027,0 10 0 0,0
22.08.2019 02:00:00 10,8 9,9 9,0 12,3 16,9 15,7 5 3 9 5 SE 1027,1 16 0 0,0
22.08.2019 01:00:00 12,6 10,9 9,4 12,7 17,3 15,7 8 5 10 6 S 1027,3 24 0 0,0
22.08.2019 00:00:00 11,5 10,7 8,6 13,5 17,7 15,7 5 3 9 5 S 1027,4 26 0 0,0
21.08.2019 23:00:00 12,6 11,6 8,6 14,4 18,2 15,7 5 3 6 4 S 1027,4 18 0 0,0
21.08.2019 22:00:00 13,3 11,9 10,1 15,8 18,5 15,7 5 3 7 4 SSE 1027,4 21 0 0,0
21.08.2019 21:00:00 14,8 12,4 12,2 17,6 18,8 15,7 6 3 11 6 SSW 1027,2 32 11 0,0
21.08.2019 20:00:00 16,9 12,6 16,5 19,5 18,9 15,7 9 5 15 8 SSW 1027,0 51 60 0,0
21.08.2019 19:00:00 18,2 11,8 19,2 21,1 18,8 15,7 9 5 21 11 SW 1027,2 36 60 0,0
21.08.2019 18:00:00 18,4 11,6 20,9 21,8 18,7 15,7 13 7 24 13 SW 1027,3 55 44 0,0
21.08.2019 17:00:00 18,9 11,8 20,8 23,3 18,4 15,7 16 8 30 16 WSW 1027,2 8 55 0,0
21.08.2019 16:00:00 18,7 11,2 20,4 23,3 18,0 15,7 21 11 31 17 WSW 1027,2 24 40 0,0
21.08.2019 15:00:00 19,4 12,2 23,5 23,3 17,7 15,7 14 7 29 16 SW 1027,1 25 32 0,0
21.08.2019 14:00:00 17,6 11,0 18,7 21,8 17,2 15,7 10 5 26 14 W 1027,3 43 19 0,0
21.08.2019 13:00:00 18,8 12,0 23,8 23,9 16,6 15,7 14 7 24 13 SW 1027,2 16 54 0,0
21.08.2019 12:00:00 18,1 9,9 21,6 22,7 16,0 15,7 11 6 20 11 W 1026,9 26 53 0,0
21.08.2019 11:00:00 17,9 12,0 21,4 20,5 15,6 15,7 7 4 15 8 SW 1026,7 33 48 0,0
21.08.2019 10:00:00 17,1 12,1 20,0 18,7 15,2 15,7 6 3 10 5 WNW 1026,6 51 60 0,0
21.08.2019 09:00:00 15,8 12,2 17,5 15,9 15,1 15,7 3 1 5 3 W 1026,2 58 50 0,0
21.08.2019 08:00:00 14,0 12,2 13,4 13,6 15,2 15,7 4 2 6 3 W 1025,7 42 46 0,1
21.08.2019 07:00:00 12,8 12,0 10,8 12,5 15,4 15,7 5 3 13 7 WNW 1024,9 42 0 0,1
21.08.2019 06:00:00 13,4 12,0 12,0 12,3 15,6 15,7 9 5 14 8 WSW 1024,3 26 0 0,0
21.08.2019 05:00:00 13,0 11,3 10,4 12,3 15,8 15,7 8 4 17 9 SW 1024,0 53 0 0,2
21.08.2019 04:00:00 13,0 11,0 10,7 11,8 16,1 15,7 10 5 16 9 SW 1023,6 46 0 0,0
21.08.2019 03:00:00 11,6 10,4 9,0 12,1 16,5 15,7 8 4 13 7 SSW 1023,6 33 0 0,0
21.08.2019 02:00:00 11,8 10,7 9,1 12,6 16,8 15,7 8 4 12 7 SSW 1023,6 34 0 0,0
21.08.2019 01:00:00 13,0 10,8 10,4 13,1 17,2 15,7 7 4 13 7 SW 1023,5 42 0 0,0
21.08.2019 00:00:00 12,7 11,0 10,0 14,0 17,6 15,7 8 4 13 7 SSW 1023,0 39 0 0,0
20.08.2019 23:00:00 14,1 12,0 11,6 15,1 17,9 15,7 7 4 13 7 SW 1022,8 39 0 0,0
20.08.2019 22:00:00 14,5 11,8 12,2 15,7 18,3 15,7 9 5 14 8 WSW 1022,7 47 0 0,0
20.08.2019 21:00:00 15,3 12,2 13,4 16,9 18,6 15,7 9 5 17 9 SW 1022,4 44 6 0,0
20.08.2019 20:00:00 16,9 11,8 16,2 18,8 18,7 15,7 10 6 23 12 WSW 1021,7 64 60 0,0
20.08.2019 19:00:00 18,6 12,2 19,9 20,4 18,7 15,7 14 8 27 15 W 1021,6 28 42 0,0
20.08.2019 18:00:00 18,7 12,1 20,5 21,8 18,5 15,7 17 9 28 15 SW 1021,2 16 50 0,0
20.08.2019 17:00:00 19,3 11,3 21,8 22,5 18,2 15,7 17 9 38 21 SW 1021,0 12 55 0,0
20.08.2019 16:00:00 19,9 10,2 23,3 23,4 17,8 15,7 14 7 35 19 WSW 1020,6 11 56 0,0
20.08.2019 15:00:00 19,2 10,7 21,9 23,3 17,3 15,7 19 10 41 22 WSW 1020,4 11 45 0,0
20.08.2019 14:00:00 19,9 11,9 23,5 23,7 16,8 15,7 19 11 36 20 SW 1019,9 7 55 0,0
20.08.2019 13:00:00 18,6 11,0 20,4 21,8 16,3 15,7 19 10 33 18 WSW 1019,7 15 42 0,0
20.08.2019 12:00:00 19,0 12,2 22,0 20,8 15,8 15,7 17 9 31 17 W 1019,3 13 47 0,0
20.08.2019 11:00:00 17,7 13,5 19,0 18,8 15,5 15,7 14 8 22 12 WSW 1018,7 28 30 0,3
20.08.2019 10:00:00 15,0 12,6 14,5 17,0 15,3 15,7 16 8 35 19 SW 1018,4 28 28 0,6
20.08.2019 09:00:00 14,7 13,5 14,3 14,8 15,3 15,7 10 6 16 9 S 1017,8 32 12 0,0
20.08.2019 08:00:00 13,5 12,4 12,3 13,6 15,4 15,7 11 6 25 14 S 1017,1 56 0 4,4
20.08.2019 07:00:00 13,8 12,7 13,2 13,6 15,5 15,7 6 3 16 9 WNW 1016,8 29 0 2,0
20.08.2019 06:00:00 14,1 12,3 12,7 13,2 15,7 15,7 8 5 16 9 S 1016,4 54 0 0,0
20.08.2019 05:00:00 13,9 12,7 12,3 13,4 15,9 15,7 10 5 18 10 S 1016,4 42 0 0,0
20.08.2019 04:00:00 13,9 12,9 12,7 13,3 16,1 15,7 10 5 15 8 S 1016,3 36 0 0,0
20.08.2019 03:00:00 13,8 13,1 12,2 13,7 16,2 15,7 11 6 19 10 S 1016,2 24 0 0,0
20.08.2019 02:00:00 13,9 12,3 12,7 14,2 16,4 15,7 10 5 20 11 S 1016,0 32 0 0,0
20.08.2019 01:00:00 15,1 13,2 14,0 14,2 16,7 15,7 14 7 19 10 SSW 1016,1 42 0 0,0
20.08.2019 00:00:00 14,5 12,9 12,7 14,2 16,9 15,8 11 6 16 9 SSW 1015,9 35 0 0,0
19.08.2019 23:00:00 15,1 13,2 12,9 14,8 17,2 15,8 8 4 14 8 SSW 1015,4 31 0 0,0
19.08.2019 22:00:00 13,7 12,6 11,9 15,2 17,5 15,8 8 4 16 9 S 1015,4 24 0 0,0
19.08.2019 21:00:00 15,9 12,9 14,2 16,6 17,7 15,8 12 7 27 15 SW 1014,9 32 9 0,0
19.08.2019 20:00:00 17,1 12,1 17,0 18,0 17,8 15,8 16 9 40 22 SW 1014,4 36 11 0,0
19.08.2019 19:00:00 18,1 12,5 18,0 19,1 17,7 15,8 21 11 40 22 SW 1014,1 22 49 0,0
19.08.2019 18:00:00 19,0 12,2 20,4 20,1 17,5 15,8 24 13 44 24 SW 1013,6 9 46 0,0
19.08.2019 17:00:00 18,9 12,5 20,3 21,2 17,3 15,8 26 14 49 27 SW 1013,6 7 53 0,0
19.08.2019 16:00:00 18,8 12,6 20,1 21,3 16,9 15,8 32 17 51 28 SW 1013,1 7 52 0,0
19.08.2019 15:00:00 19,2 14,2 21,6 20,8 16,6 15,8 30 16 47 25 SW 1012,4 12 29 0,0
19.08.2019 14:00:00 18,0 13,4 18,2 19,2 16,4 15,8 29 16 50 27 WSW 1011,5 14 13 0,7
19.08.2019 13:00:00 17,5 14,2 17,0 18,6 16,1 15,8 33 18 50 27 SSW 1011,1 10 7 0,0
19.08.2019 12:00:00 17,6 14,4 18,6 19,0 15,8 15,8 27 14 48 26 SW 1010,6 16 4 0,0
19.08.2019 11:00:00 17,4 14,3 18,4 18,3 15,5 15,8 29 15 48 26 SSW 1010,0 16 12 0,0
19.08.2019 10:00:00 17,6 15,2 19,2 17,7 15,2 15,8 23 12 36 20 SSW 1009,5 21 26 0,0
19.08.2019 09:00:00 15,7 13,4 15,4 15,0 15,2 15,8 13 7 21 11 S 1008,9 38 2 0,1
19.08.2019 08:00:00 14,2 12,3 13,2 14,3 15,1 15,8 16 9 29 16 W 1009,1 61 0 1,4

tt = temperature
td = dewpoint
tt 5cm = temperature 5cm
tt -5cm = temperature -5cm
tt -20cm = temperature -20cm
tt -100cm = temperature -100cm
ff = wind speed
fx = gusts
dd = wind direction
ppp = reduced air pressure
vv = visibility
sd = sunshine duration
rr = precipitation

Next stations